Location: Malcolm X Square
(37.7810°N, 122.4297°W)
Time: 23:28:36
(UTC+00:00)

Cosmos 2278 Rocket - Pass Details

Date: 13 April 2024
Orbit: 839 x 846 km, 71.0° (Epoch: 21 May)

Event Time Altitude Azimuth Distance (km) Brightness Sun altitude
Rises 12:24:05 0° 327° (NNW) 3,413 5.3 -14.4°
Reaches altitude 10° 12:26:45 10° 318° (NW) 2,473 4.5 -13.9°
Maximum altitude 12:31:45 33° 256° (WSW) 1,389 2.8 -13.0°
Drops below altitude 10° 12:36:44 10° 194° (SSW) 2,457 4.3 -12.1°
Sets 12:39:23 0° 185° (S) 3,387 5.1 -11.6°
